| time (UTC) | temp F | wind direction | speed MPH | gust MPH | rain 1hr in | rain 24hr in | rain mn in | humidity % | barometer mb |
| 20260831110035 | 53 | 216 | 15.0 | 19.0 | 0.00 | 0.00 | 0.00 | 67 | 1008.8 |
| 20260831104547 | 54 | 233 | 12.0 | 18.0 | 0.00 | 0.00 | 0.00 | 66 | 1008.8 |
| 20260831103034 | 54 | 225 | 17.0 | 22.0 | 0.00 | 0.00 | 0.00 | 67 | 1008.7 |
| 20260831101533 | 52 | 226 | 19.0 | 23.0 | 0.00 | 0.00 | 0.00 | 72 | 1008.7 |
| 20260831100026 | 51 | 227 | 18.0 | 21.0 | 0.00 | 0.00 | 0.00 | 79 | 1008.6 |
| 20260831094526 | 49 | 219 | 11.0 | 16.0 | 0.00 | 0.00 | 0.00 | 81 | 1008.8 |
| 20260831093035 | 50 | 200 | 13.0 | 17.0 | 0.00 | 0.00 | 0.00 | 81 | 1008.7 |
| 20260831091518 | 50 | 211 | 9.0 | 11.0 | 0.00 | 0.00 | 0.00 | 80 | 1008.8 |
| 20260831090016 | 50 | 228 | 8.0 | 12.0 | 0.00 | 0.00 | 0.00 | 78 | 1008.8 |
| 20260831084516 | 51 | 235 | 11.0 | 13.0 | 0.00 | 0.00 | 0.00 | 79 | 1008.7 |
| 20260831083013 | 50 | 218 | 8.0 | 10.0 | 0.00 | 0.00 | 0.00 | 79 | 1008.8 |
| 20260831081512 | 51 | 225 | 8.0 | 10.0 | 0.00 | 0.00 | 0.00 | 79 | 1008.7 |
| 20260831080009 | 51 | 233 | 9.0 | 12.0 | 0.00 | 0.00 | 0.00 | 80 | 1008.8 |
| 20260831074508 | 51 | 245 | 9.0 | 11.0 | 0.00 | 0.00 | 0.00 | 81 | 1008.8 |
| 20260831073005 | 51 | 240 | 9.0 | 12.0 | 0.00 | 0.00 | 0.00 | 81 | 1008.8 |
| 20260831071507 | 52 | 240 | 10.0 | 14.0 | 0.00 | 0.00 | 0.00 | 81 | 1008.9 |
| 20260831070104 | 52 | 228 | 11.0 | 15.0 | 0.00 | 0.00 | 0.00 | 81 | 1009.0 |
| 20260831064557 | 53 | 233 | 11.0 | 13.0 | 0.00 | 0.00 | 0.00 | 80 | 1008.9 |
| 20260831063052 | 54 | 236 | 10.0 | 13.0 | 0.00 | 0.00 | 0.00 | 78 | 1008.9 |
| 20260831061550 | 54 | 240 | 11.0 | 12.0 | 0.00 | 0.00 | 0.00 | 78 | 1008.8 |
| 20260831060048 | 54 | 225 | 9.0 | 12.0 | 0.00 | 0.00 | 0.00 | 77 | 1008.8 |
| 20260831054545 | 54 | 240 | 10.0 | 12.0 | 0.00 | 0.00 | 0.00 | 77 | 1008.8 |
| 20260831053044 | 54 | 245 | 9.0 | 11.0 | 0.00 | 0.00 | 0.00 | 77 | 1009.1 |
| 20260831051543 | 54 | 228 | 10.0 | 12.0 | 0.00 | 0.00 | 0.00 | 77 | 1009.2 |
| 20260831050042 | 54 | 240 | 9.0 | 11.0 | 0.00 | 0.00 | 0.00 | 77 | 1009.0 |
| 20260831044539 | 54 | 240 | 8.0 | 10.0 | 0.00 | 0.00 | 0.00 | 76 | 1009.1 |
| 20260831043035 | 55 | 229 | 7.0 | 9.0 | 0.00 | 0.00 | 0.00 | 76 | 1009.1 |
| 20260831041533 | 55 | 236 | 5.0 | 8.0 | 0.00 | 0.00 | 0.00 | 76 | 1009.1 |
| 20260831040032 | 56 | 240 | 6.0 | 9.0 | 0.00 | 0.00 | 0.00 | 75 | 1009.0 |
| 20260831034527 | 57 | 240 | 6.0 | 9.0 | 0.00 | 0.00 | 0.00 | 74 | 1008.8 |
| 20260831033032 | 57 | 235 | 7.0 | 10.0 | 0.00 | 0.00 | 0.00 | 75 | 1008.9 |
| 20260831031522 | 57 | 250 | 7.0 | 12.0 | 0.00 | 0.00 | 0.00 | 75 | 1009.0 |
| 20260831030025 | 57 | 255 | 9.0 | 11.0 | 0.00 | 0.00 | 0.00 | 77 | 1009.1 |
| 20260831024520 | 57 | 245 | 7.0 | 9.0 | 0.00 | 0.00 | 0.00 | 76 | 1009.0 |
| 20260831023014 | 58 | 245 | 8.0 | 10.0 | 0.00 | 0.00 | 0.00 | 75 | 1008.8 |
| 20260831021512 | 59 | 256 | 5.0 | 7.0 | 0.00 | 0.00 | 0.00 | 73 | 1008.4 |
| 20260831020009 | 61 | 256 | 4.0 | 6.0 | 0.00 | 0.00 | 0.00 | 70 | 1008.2 |
| 20260831014508 | 62 | 256 | 5.0 | 7.0 | 0.00 | 0.00 | 0.00 | 68 | 1008.1 |
| 20260831013008 | 63 | 256 | 7.0 | 9.0 | 0.00 | 0.00 | 0.00 | 66 | 1008.0 |
| 20260831011507 | 64 | 264 | 10.0 | 14.0 | 0.00 | 0.00 | 0.00 | 65 | 1008.2 |
| 20260831010007 | 65 | 276 | 9.0 | 19.0 | 0.00 | 0.00 | 0.00 | 63 | 1008.1 |
| 20260831004506 | 65 | 269 | 15.0 | 23.0 | 0.00 | 0.00 | 0.00 | 62 | 1008.2 |
| 20260831003005 | 66 | 272 | 20.0 | 29.0 | 0.00 | 0.00 | 0.00 | 61 | 1008.4 |
| 20260831001505 | 66 | 272 | 16.0 | 28.0 | 0.00 | 0.00 | 0.00 | 64 | 1008.2 |
| 20260831000005 | 67 | 245 | 19.0 | 24.0 | 0.00 | 0.00 | 0.00 | 66 | 1007.8 |
| 20260830234506 | 66 | 245 | 19.0 | 25.0 | 0.00 | 0.00 | 0.00 | 69 | 1007.9 |
| 20260830233003 | 65 | 225 | 19.0 | 23.0 | 0.00 | 0.00 | 0.00 | 69 | 1007.7 |
| 20260830231503 | 65 | 231 | 12.0 | 15.0 | 0.00 | 0.00 | 0.00 | 69 | 1007.2 |
| 20260830230004 | 65 | 227 | 12.0 | 17.0 | 0.00 | 0.00 | 0.00 | 69 | 1007.2 |
| 20260830224501 | 65 | 223 | 12.0 | 19.0 | 0.00 | 0.00 | 0.00 | 69 | 1007.2 |
| 20260830223103 | 65 | 227 | 12.0 | 18.0 | 0.00 | 0.00 | 0.00 | 69 | 1007.2 |
| 20260830221559 | 66 | 227 | 22.0 | 30.0 | 0.00 | 0.00 | 0.00 | 67 | 1007.7 |
| 20260830220101 | 65 | 233 | 21.0 | 26.0 | 0.00 | 0.00 | 0.00 | 71 | 1007.9 |
| 20260830214623 | 64 | 240 | 23.0 | 28.0 | 0.00 | 0.00 | 0.00 | 73 | 1008.4 |
| 20260830213058 | 64 | 264 | 15.0 | 22.0 | 0.00 | 0.00 | 0.00 | 71 | 1008.9 |
| 20260830211600 | 63 | 277 | 18.0 | 27.0 | 0.00 | 0.00 | 0.00 | 70 | 1008.3 |
| 20260830210057 | 62 | 271 | 22.0 | 32.0 | 0.00 | 0.00 | 0.00 | 71 | 1008.6 |
| 20260830204554 | 65 | 268 | 34.0 | 45.0 | 0.00 | 0.00 | 0.00 | 61 | 1008.6 |
| 20260830203053 | 67 | 260 | 20.0 | 24.0 | 0.00 | 0.00 | 0.00 | 68 | 1007.9 |
| 20260830201549 | 67 | 283 | 16.0 | 22.0 | 0.00 | 0.00 | 0.00 | 70 | 1006.8 |
| 20260830200059 | 67 | 291 | 14.0 | 21.0 | 0.00 | 0.00 | 0.00 | 69 | 1006.9 |
| 20260830194550 | 68 | 254 | 20.0 | 30.0 | 0.00 | 0.00 | 0.00 | 69 | 1006.7 |
| 20260830193109 | 66 | 286 | 21.0 | 29.0 | 0.00 | 0.00 | 0.00 | 72 | 1006.7 |
| 20260830191545 | 65 | 269 | 19.0 | 31.0 | 0.00 | 0.00 | 0.00 | 76 | 1006.5 |
| 20260830190042 | 68 | 286 | 19.0 | 25.0 | 0.00 | 0.00 | 0.00 | 72 | 1006.3 |
| 20260830184542 | 68 | 294 | 14.0 | 26.0 | 0.00 | 0.00 | 0.00 | 73 | 1006.6 |
| 20260830183038 | 70 | 287 | 18.0 | 24.0 | 0.00 | 0.00 | 0.00 | 70 | 1006.0 |
| 20260830181538 | 71 | 281 | 19.0 | 24.0 | 0.00 | 0.00 | 0.00 | 70 | 1005.7 |
| 20260830180042 | 70 | 291 | 16.0 | 22.0 | 0.00 | 0.00 | 0.00 | 74 | 1005.6 |
| 20260830174541 | 71 | 308 | 11.0 | 20.0 | 0.00 | 0.00 | 0.00 | 74 | 1005.5 |
| 20260830173100 | 72 | 311 | 18.0 | 24.0 | 0.00 | 0.00 | 0.00 | 72 | 1005.2 |
| 20260830171538 | 72 | 287 | 14.0 | 20.0 | 0.00 | 0.00 | 0.00 | 72 | 1005.0 |
| 20260830170033 | 71 | 270 | 9.0 | 17.0 | 0.00 | 0.00 | 0.00 | 73 | 1005.0 |
| 20260830164533 | 70 | 269 | 11.0 | 14.0 | 0.00 | 0.00 | 0.00 | 75 | 1005.4 |
| 20260830163036 | 70 | 245 | 8.0 | 19.0 | 0.00 | 0.00 | 0.00 | 75 | 1005.5 |
| 20260830161531 | 70 | 271 | 9.0 | 16.0 | 0.00 | 0.00 | 0.00 | 74 | 1005.4 |
| 20260830160028 | 69 | 292 | 6.0 | 12.0 | 0.00 | 0.00 | 0.00 | 75 | 1005.2 |
| 20260830154527 | 69 | 308 | 4.0 | 12.0 | 0.00 | 0.00 | 0.00 | 74 | 1005.2 |
| 20260830153023 | 68 | 321 | 4.0 | 13.0 | 0.00 | 0.00 | 0.00 | 74 | 1005.2 |
| 20260830151518 | 68 | 310 | 6.0 | 12.0 | 0.00 | 0.00 | 0.00 | 75 | 1005.1 |
| 20260830150017 | 67 | 292 | 9.0 | 13.0 | 0.00 | 0.00 | 0.00 | 75 | 1005.0 |
| 20260830144516 | 68 | 240 | 9.0 | 16.0 | 0.00 | 0.00 | 0.00 | 76 | 1004.9 |
| 20260830143013 | 68 | 216 | 7.0 | 10.0 | 0.00 | 0.00 | 0.00 | 80 | 1004.6 |
| 20260830141512 | 67 | 158 | 7.0 | 9.0 | 0.00 | 0.00 | 0.00 | 81 | 1004.3 |
| 20260830140010 | 66 | 144 | 7.0 | 12.0 | 0.00 | 0.00 | 0.00 | 81 | 1004.1 |
| 20260830134509 | 64 | 159 | 5.0 | 8.0 | 0.00 | 0.00 | 0.00 | 84 | 1004.3 |
| 20260830133006 | 62 | 225 | 3.0 | 5.0 | 0.00 | 0.00 | 0.00 | 84 | 1004.6 |
| 20260830131503 | 61 | 179 | 1.0 | 4.0 | 0.00 | 0.00 | 0.00 | 83 | 1004.7 |
| 20260830130002 | 61 | 185 | 3.0 | 5.0 | 0.00 | 0.00 | 0.00 | 82 | 1004.7 |
| 20260830124558 | 61 | 202 | 3.0 | 5.0 | 0.00 | 0.00 | 0.00 | 80 | 1004.8 |
| 20260830123106 | 62 | 87 | 5.0 | 8.0 | 0.00 | 0.00 | 0.00 | 79 | 1004.9 |
| 20260830121558 | 62 | 79 | 6.0 | 9.0 | 0.00 | 0.00 | 0.00 | 78 | 1005.0 |
| 20260830120054 | 62 | 82 | 5.0 | 7.0 | 0.00 | 0.00 | 0.00 | 78 | 1005.0 |
| 20260830114608 | 62 | 55 | 4.0 | 5.0 | 0.00 | 0.00 | 0.00 | 77 | 1004.9 |
| 20260830113047 | 63 | 94 | 5.0 | 10.0 | 0.00 | 0.00 | 0.00 | 77 | 1005.0 |
| 20260830111547 | 63 | 118 | 3.0 | 6.0 | 0.00 | 0.00 | 0.00 | 76 | 1005.0 |